[[{"header":{"parameterUnit":"m.s-1","parameterCategory":1,"la1":30.2991,"la2":30.254,"lo1":-89.0895,"lo2":-89.0444,"dy":0.0017,"dx":0.0017,"nx":28,"ny":28,"refTime":"2025-01-31T03:00:00:Z","depth":0,"parameterNumber":2,"parameterNumberName":"U-component_of_WINDS"},"data":[0,0,0,0,0,0,0,0,0,0,0,0,0,0,0,0,0,0,0,0,0,0,0,0,0,0,0,0,0,0,0,0,0,0,0,0,0,0,0,0,0,0,0,0,0,0,0,0,0,0,0,0,0,0,0,0,0,0,-2.3672,-2.3674,0,-2.3842,-2.3844,-2.3846,-2.3928,-2.3928,-2.3928,-2.3927,-2.4105,-2.411,-2.4115,0,0,0,0,0,0,0,0,0,0,0,0,0,-2.3419,-2.3423,-2.3672,-2.3674,-2.3676,-2.3842,-2.3845,-2.3847,-2.3928,-2.3928,-2.3928,-2.3927,-2.4104,-2.4109,-2.4115,0,0,0,0,0,0,0,0,0,0,0,0,0,-2.3553,-2.3424,-2.3671,-2.3736,-2.3744,-2.3842,-2.3845,-2.3847,-2.3928,-2.3928,-2.3927,-2.3927,-2.4102,-2.4109,-2.4116,-2.4163,0,0,-2.4138,-2.4141,0,0,0,0,0,0,0,0,-2.3545,-2.3562,-2.3725,-2.3732,-2.374,-2.3864,-2.3821,-2.3953,-2.3928,-2.3858,-2.3927,-2.3927,-2.4025,-2.4039,-2.4071,-2.4172,-2.4179,-2.4139,-2.4143,-2.4146,-2.4148,0,0,0,0,0,0,0,-2.3536,-2.3555,-2.3739,-2.3727,-2.3737,-2.3758,-2.3777,-2.3846,-2.394,-2.3864,-2.387,-2.3889,-2.403,-2.4064,-2.4076,-2.4182,-2.4139,-2.4145,-2.4149,-2.4152,-2.4331,-2.4331,0,0,0,0,0,0,-2.3516,-2.3547,-2.3734,-2.3744,-2.364,-2.3763,-2.3784,-2.3824,-2.394,-2.3957,-2.3889,-2.3892,-2.4052,-2.4067,-2.4082,-2.4146,-2.4146,-2.4153,-2.4157,-2.433,-2.4331,-2.4331,0,0,0,0,0,0,-2.351,-2.3531,-2.3727,-2.3648,-2.3674,-2.3767,-2.3812,-2.3828,-2.3862,-2.3959,-2.3976,-2.3907,-2.4052,-2.4072,-2.4143,-2.4153,-2.4156,-2.4163,-2.433,-2.433,-2.4331,-2.4273,0,0,0,0,0,0,-2.3502,-2.3529,-2.3547,-2.3647,-2.3678,-2.3783,-2.3813,-2.3831,-2.3874,-2.388,-2.398,-2.3996,-2.4054,-2.4131,-2.415,-2.4163,-2.4168,-2.4329,-2.433,-2.4331,-2.4274,-2.4271,-2.4269,0,0,0,0,0,-2.3493,-2.3524,-2.3547,-2.357,-2.3702,-2.3783,-2.3801,-2.3865,-2.3874,-2.3894,-2.3956,-2.3993,-2.4149,-2.4138,-2.4159,-2.4175,-2.4329,-2.433,-2.4331,-2.4275,-2.4272,-2.4269,0,0,0,0,0,0,-2.3424,-2.3539,-2.3566,-2.363,-2.3696,-2.3797,-2.3824,-2.386,-2.3925,-2.3928,-2.4006,-2.4028,-2.4091,-2.4141,-2.4126,-2.4227,-2.4242,-2.4248,-2.4193,-2.419,-2.4188,-2.4175,-2.4174,0,0,0,0,0,-2.3416,-2.3471,-2.3569,-2.3617,-2.3648,-2.373,-2.3768,-2.3811,-2.3884,-2.3912,-2.398,-2.4049,-2.4114,-2.4155,-2.422,-2.4281,-2.4305,-2.4303,-2.43,-2.4298,-2.4301,-2.4338,-2.4339,-2.4334,-2.4334,-2.4334,0,0,-2.3401,-2.347,-2.3501,-2.3605,-2.3661,-2.3717,-2.3753,-2.3811,-2.3854,-2.3922,-2.3992,-2.4043,-2.4126,-2.4192,-2.4225,-2.4235,-2.4308,-2.4299,-2.4296,-2.4301,-2.4339,-2.434,-2.434,-2.4335,-2.4335,-2.4334,0,0,-2.3402,-2.346,-2.3506,-2.3561,-2.3646,-2.37,-2.3711,-2.3806,-2.3843,-2.3914,-2.3966,-2.4019,-2.4128,-2.4186,-2.4229,-2.4251,-2.4288,-2.427,-2.4257,-2.4292,-2.4292,-2.4293,-2.4302,-2.4304,-2.4274,-2.4273,-2.4273,0,-2.3373,-2.3459,-2.3525,-2.3581,-2.3625,-2.3687,-2.3735,-2.3787,-2.3888,-2.3918,-2.3928,-2.4067,-2.4127,-2.4208,-2.4213,-2.4246,-2.4262,-2.4259,-2.4287,-2.4288,-2.429,-2.4299,-2.4302,-2.4271,-2.4271,-2.4271,-2.4272,0,-2.3419,-2.3478,-2.3505,-2.36,-2.3648,-2.3699,-2.3775,-2.3815,-2.3855,-2.3908,-2.3981,-2.4055,-2.4136,-2.4158,-2.4198,-2.4245,-2.4249,-2.4271,-2.4288,-2.4286,-2.4296,-2.43,-2.4267,-2.4268,-2.4269,-2.4269,0,0,-2.3382,-2.3513,-2.3522,-2.3566,-2.3664,-2.3711,-2.3766,-2.3844,-2.3878,-2.3946,-2.3994,-2.4085,-2.4107,-2.4156,-2.4203,-2.4233,-2.4247,-2.4253,-2.4256,-2.425,-2.4305,-2.4287,-2.429,-2.4272,-2.4273,-2.4274,-2.4298,0,-2.3397,-2.3496,-2.3558,-2.3632,-2.3688,-2.3748,-2.3796,-2.3861,-2.3913,-2.3969,-2.4026,-2.4089,-2.4113,-2.4143,-2.4176,-2.4238,-2.4259,-2.4238,-2.4319,-2.4321,-2.4297,-2.4295,-2.4277,-2.4296,-2.4302,-2.4303,-2.4304,0,-2.3428,-2.3493,-2.3573,-2.3665,-2.369,-2.3732,-2.3809,-2.3861,-2.3937,-2.3972,-2.4027,-2.4074,-2.4135,-2.4146,-2.4232,-2.4216,-2.4253,-2.4289,-2.4291,-2.4302,-2.4312,-2.4306,-2.4304,-2.4307,-2.431,-2.431,-2.4309,0,-2.3393,-2.3502,-2.3563,-2.3599,-2.3708,-2.3735,-2.3782,-2.3858,-2.3901,-2.3969,-2.3998,-2.4072,-2.4113,-2.417,-2.4236,-2.4238,-2.4316,-2.4332,-2.4348,-2.4346,-2.4362,-2.436,-2.4366,-2.4385,-2.4384,-2.4384,-2.4384,0,-2.3404,-2.3451,-2.3549,-2.3587,-2.3642,-2.3712,-2.3765,-2.3817,-2.3884,-2.3934,-2.3991,-2.4037,-2.4121,-2.4178,-2.423,-2.4294,-2.4312,-2.4343,-2.4357,-2.4339,-2.4335,-2.4364,-2.4365,-2.4385,-2.4385,-2.4385,-2.4385,0,-2.3375,-2.3443,-2.3514,-2.361,-2.3636,-2.3672,-2.3755,-2.3795,-2.3849,-2.3912,-2.3931,-2.4016,-2.4086,-2.4157,-2.4252,-2.4288,-2.435,-2.4368,-2.4324,-2.4332,-2.4343,-2.4341,-2.4369,-2.4377,-2.4389,-2.4388,-2.4388,0,-2.3377,-2.3415,-2.3514,-2.3551,-2.3596,-2.3655,-2.3699,-2.3771,-2.3815,-2.3904,-2.3933,-2.4007,-2.407,-2.418,-2.4251,-2.4324,-2.4345,-2.435,-2.4357,-2.4337,-2.4346,-2.4343,-2.4348,-2.4347,-2.4346,-2.4346,-2.4346,0,-2.3375,-2.3406,-2.3467,-2.3539,-2.359,-2.3651,-2.3714,-2.3741,-2.3825,-2.3872,-2.3943,-2.3992,-2.4089,-2.4162,-2.4243,-2.4293,-2.4334,-2.4343,-2.4351,-2.4333,-2.4306,-2.4321,-2.4317,-2.4342,-2.4343,-2.4343,-2.4343,-2.4343,-2.3363,-2.3398,-2.3474,-2.354,-2.3594,-2.3652,-2.3694,-2.3753,-2.3813,-2.3897,-2.3936,-2.4007,-2.4084,-2.4197,-2.4246,-2.4305,-2.4316,-2.4327,-2.433,-2.4331,-2.4327,-2.4295,-2.432,-2.432,-2.432,-2.432,-2.4321,0,-2.3363,-2.3415,-2.3474,-2.356,-2.3612,-2.3644,-2.3716,-2.3758,-2.382,-2.3887,-2.3947,-2.403,-2.4101,-2.4178,-2.4254,-2.4286,-2.4307,-2.4304,-2.4303,-2.4314,-2.4312,-2.4298,-2.4286,-2.4286,-2.4286,-2.4286,-2.4286,-2.4286,-2.337,-2.3432,-2.3473,-2.3563,-2.3615,-2.3685,-2.3723,-2.3777,-2.3831,-2.392,-2.3979,-2.4028,-2.41,-2.4181,-2.4249,-2.427,-2.4295,-2.4287,-2.4313,-2.4311,-2.4313,-2.4316,-2.4303,-2.4292,-2.4292,-2.431,-2.431,-2.431]},{"header":{"parameterUnit":"m.s-1","parameterCategory":1,"la1":30.2991,"la2":30.254,"lo1":-89.0895,"lo2":-89.0444,"dy":0.0017,"dx":0.0017,"nx":28,"ny":28,"refTime":"2025-01-31T03:00:00:Z","depth":0,"parameterNumber":3,"parameterNumberName":"V-component_of_WINDS"},"data":[0,0,0,0,0,0,0,0,0,0,0,0,0,0,0,0,0,0,0,0,0,0,0,0,0,0,0,0,0,0,0,0,0,0,0,0,0,0,0,0,0,0,0,0,0,0,0,0,0,0,0,0,0,0,0,0,0,0,5.0456,5.0457,0,5.0571,5.0572,5.0573,5.06,5.0599,5.0599,5.0598,5.072,5.0724,5.0728,0,0,0,0,0,0,0,0,0,0,0,0,0,5.0265,5.0269,5.0456,5.0457,5.0458,5.057,5.0572,5.0574,5.06,5.0599,5.0598,5.0598,5.0719,5.0723,5.0728,0,0,0,0,0,0,0,0,0,0,0,0,0,5.0361,5.027,5.0455,5.0485,5.0489,5.057,5.0572,5.0574,5.0601,5.0599,5.0598,5.0597,5.0717,5.0723,5.0729,5.079,0,0,5.0747,5.075,0,0,0,0,0,0,0,0,5.0356,5.0368,5.0479,5.0483,5.0488,5.057,5.055,5.0646,5.0601,5.0558,5.0598,5.0597,5.0671,5.0681,5.0705,5.0795,5.0801,5.0748,5.0751,5.0754,5.0756,0,0,0,0,0,0,0,5.0349,5.0363,5.0501,5.0481,5.0486,5.0495,5.0507,5.0568,5.062,5.0562,5.0564,5.0577,5.0673,5.0699,5.0708,5.0802,5.0748,5.0753,5.0757,5.0759,5.0952,5.0954,0,0,0,0,0,0,5.0336,5.0358,5.0498,5.0505,5.0417,5.0499,5.0513,5.0545,5.062,5.063,5.0578,5.0578,5.069,5.0701,5.0713,5.0792,5.0754,5.0759,5.0763,5.0951,5.0953,5.0954,0,0,0,0,0,0,5.0332,5.0349,5.0493,5.0432,5.0451,5.0504,5.0539,5.0548,5.0574,5.0632,5.0642,5.0595,5.0689,5.0704,5.0771,5.0796,5.0762,5.0768,5.0949,5.0951,5.0953,5.0949,0,0,0,0,0,0,5.0327,5.0347,5.0369,5.0432,5.0454,5.0547,5.0541,5.0551,5.0583,5.0584,5.065,5.066,5.069,5.0762,5.0777,5.0804,5.0772,5.0947,5.095,5.0953,5.0947,5.095,5.0954,0,0,0,0,0,5.032,5.0363,5.037,5.0387,5.0482,5.0549,5.0561,5.0593,5.0585,5.0609,5.0647,5.0658,5.079,5.0768,5.0786,5.0815,5.0946,5.0949,5.0952,5.0945,5.095,5.0953,0,0,0,0,0,0,5.0303,5.0372,5.038,5.0445,5.0491,5.0553,5.0584,5.0597,5.0647,5.0646,5.0685,5.0699,5.0764,5.0796,5.077,5.088,5.0868,5.0875,5.0857,5.0862,5.0865,5.0857,5.0777,0,0,0,0,0,5.0306,5.0353,5.0411,5.0463,5.0485,5.0531,5.0561,5.0581,5.0631,5.0651,5.0693,5.0742,5.0796,5.083,5.0882,5.0951,5.0968,5.098,5.0983,5.0986,5.0992,5.1035,5.1042,5.0966,5.0966,5.0966,0,0,5.0315,5.0358,5.0385,5.0461,5.0498,5.0548,5.0547,5.0598,5.0637,5.0659,5.0725,5.0758,5.0816,5.0885,5.0917,5.0913,5.1017,5.099,5.0991,5.0997,5.1039,5.1046,5.1053,5.0968,5.0968,5.0967,0,0,5.0356,5.0392,5.0441,5.0479,5.0536,5.0566,5.0578,5.0639,5.0661,5.0728,5.0747,5.0793,5.0883,5.0924,5.0957,5.1016,5.1029,5.1032,5.1051,5.1092,5.1098,5.1103,5.1128,5.1136,5.1037,5.1037,5.1037,0,5.036,5.0434,5.0465,5.0516,5.055,5.0572,5.0623,5.0659,5.0731,5.0755,5.0748,5.0864,5.0904,5.0984,5.0999,5.1023,5.1041,5.1025,5.1094,5.11,5.1106,5.1129,5.1138,5.1037,5.1037,5.1037,5.1037,0,5.0438,5.0488,5.0521,5.0589,5.0627,5.0678,5.0719,5.0753,5.0771,5.0803,5.0872,5.0921,5.0984,5.1004,5.1022,5.1089,5.1085,5.1086,5.1076,5.1112,5.1136,5.1145,5.1038,5.1038,5.1038,5.1038,0,0,5.0473,5.0557,5.0569,5.0602,5.0667,5.0708,5.0761,5.0822,5.0853,5.0902,5.095,5.1026,5.1028,5.1065,5.1088,5.1123,5.1171,5.112,5.1123,5.1131,5.1252,5.1253,5.1263,5.1179,5.1181,5.1183,5.1248,0,5.0524,5.0619,5.0649,5.0728,5.0778,5.08,5.0847,5.0893,5.0924,5.0973,5.1008,5.1063,5.1059,5.1082,5.1118,5.1158,5.1197,5.1153,5.1228,5.123,5.1216,5.1275,5.1276,5.1335,5.1257,5.1259,5.126,0,5.0597,5.0647,5.0732,5.0793,5.0815,5.0856,5.0916,5.0961,5.1015,5.1036,5.1078,5.1098,5.1158,5.1142,5.1227,5.1197,5.1229,5.1253,5.1256,5.1267,5.1249,5.129,5.1355,5.1365,5.1274,5.1273,5.1272,0,5.0619,5.0707,5.0769,5.0796,5.0868,5.0897,5.0929,5.0982,5.1018,5.1071,5.1095,5.1154,5.1188,5.1234,5.1271,5.1256,5.1354,5.1341,5.1376,5.1375,5.1398,5.1396,5.1472,5.1413,5.1413,5.1413,5.1412,0,5.0675,5.0727,5.078,5.0819,5.0879,5.0914,5.0972,5.1006,5.1053,5.1101,5.1123,5.1168,5.1212,5.1264,5.1293,5.1361,5.1375,5.1396,5.1404,5.1396,5.1394,5.142,5.1418,5.1415,5.1414,5.1414,5.1414,0,5.071,5.0747,5.0818,5.088,5.0897,5.0939,5.0994,5.1034,5.1066,5.1126,5.1143,5.1194,5.1256,5.1297,5.1376,5.1396,5.1471,5.1476,5.1453,5.1457,5.1491,5.1489,5.1589,5.1606,5.1532,5.1533,5.1533,0,5.0745,5.0785,5.0852,5.0885,5.0917,5.0969,5.1006,5.1043,5.1081,5.1147,5.118,5.1243,5.1296,5.1395,5.1441,5.1502,5.1511,5.1542,5.1521,5.1513,5.1516,5.1515,5.1521,5.1546,5.1547,5.1547,5.1548,0,5.0805,5.0821,5.0872,5.0931,5.0974,5.1022,5.107,5.1096,5.1142,5.1183,5.1247,5.1288,5.1369,5.1433,5.1499,5.1535,5.1551,5.1554,5.1566,5.156,5.1546,5.1558,5.1466,5.1552,5.1552,5.1551,5.1551,5.1551,5.0843,5.0882,5.0935,5.0992,5.1032,5.1077,5.1119,5.1156,5.1209,5.1277,5.1296,5.1363,5.1419,5.151,5.1546,5.1601,5.1598,5.1615,5.162,5.1624,5.1626,5.1534,5.1613,5.1613,5.1613,5.1613,5.1613,0,5.0907,5.0943,5.0995,5.1062,5.1107,5.1115,5.117,5.1208,5.1267,5.1317,5.1368,5.1443,5.1506,5.1556,5.1622,5.1656,5.1666,5.1673,5.1672,5.1681,5.1623,5.1608,5.1664,5.1664,5.1664,5.1664,5.1664,5.1664,5.0946,5.1012,5.1035,5.1123,5.1159,5.1223,5.1254,5.1297,5.1338,5.142,5.1471,5.1503,5.1555,5.1625,5.1684,5.1698,5.1722,5.1729,5.1744,5.169,5.1685,5.1679,5.1665,5.1733,5.1733,5.1798,5.1799,5.1799]}]]